Location: Casteau
(50.5142°N, 4.0161°E)
Time: 21:06:16
(UTC+00:00)

Tiros 1 - Pass Details

Date: 09 August 2021
Orbit: 630 x 663 km, 48.4° (Epoch: 28 September)

Event Time Altitude Azimuth Distance (km) Brightness Sun altitude
Rises 19:47:31 0° 281° (W) 2,987 12.1 -5.4°
Reaches altitude 10° 19:50:02 10° 272° (W) 2,068 10.8 -5.7°
Maximum altitude 19:54:18 33° 208° (SSW) 1,094 8.3 -6.3°
Drops below altitude 10° 19:58:31 10° 145° (SE) 2,042 9.1 -6.9°
Enters shadow 19:59:06 - 142° (SE) 2,250 9.3 -6.9°
Sets 20:01:00 0° 136° (SE) 2,943 - -7.2°
